Temp
17 18 19 18 17 17 16 15 16 16 16 16 16 15 15 15 15 15 15 15 15 15 15 15 15 15 15 15 15 15 14 14 14 14 14 14 14 14 14 14 14 13 14
18 17 19 18 17 16 15 15 16 16 15 15 15 15 15 15 14 15 15 15 14 14 14 15 16 15 15 15 14 14 14 14 14 14 14 14 14 14 13 14 14 13 13
18 18 18 17 16 15 15 14 15 15 15 16 15 15 15 13 14 15 15 14 14 14 15 16 15 15 15 15 14 14 14 14 13 13 13 13 13 13 13 13 13 13 13
17 17 17 17 16 15 15 14 14 14 15 16 16 15 14 13 15 14 14 14 14 15 16 15 15 15 15 14 14 14 13 13 13 13 13 13 13 13 13 13 13 13 13
18 17 17 16 16 16 15 14 14 16 15 15 15 16 15 14 15 14 14 14 15 16 15 15 15 15 14 14 14 14 13 12 13 13 13 12 12 12 12 13 13 12 13
18 16 16 15 16 15 15 14 14 14 15 15 16 16 16 15 14 14 15 16 16 15 15 15 14 14 11 12 13 13 13 13 13 13 13 13 13 12 12 12 12 11 11
18 17 16 16 16 15 15 14 13 14 15 15 16 16 15 15 14 15 15 15 15 15 15 14 12 11 11 12 13 12 12 12 12 11 12 12 12 12 12 11 10 10 9
18 18 17 16 15 15 14 15 14 14 14 15 15 14 12 11 14 15 15 15 15 15 14 11 10 11 11 12 12 12 12 12 12 11 11 11 11 10 10 11 10 10 10
17 17 17 16 16 15 15 15 14 14 13 13 13 11 11 11 15 15 15 14 14 14 13 10 11 10 11 12 12 12 12 11 11 11 11 11 11 10 9 10 10 10 9
16 16 16 15 16 15 15 14 14 12 12 11 11 12 11 14 15 15 14 13 13 14 12 10 10 10 11 11 12 11 11 11 11 10 10 11 11 11 11 10 9 9 8
15 16 15 15 15 15 14 14 14 12 11 11 11 11 13 13 14 14 13 13 13 13 11 10 10 12 11 11 11 11 11 11 10 10 9 9 9 10 10 9 8 9 8
15 15 15 14 15 15 14 14 14 12 12 11 11 10 11 13 12 12 12 13 13 12 10 10 12 11 11 11 11 11 11 10 10 10 9 8 8 8 9 8 7 7 7
15 15 15 14 14 14 14 14 14 13 11 11 11 11 11 11 10 11 11 12 13 12 10 11 11 11 11 11 10 10 10 10 9 9 7 8 8 8 7 7 7 6 6
14 14 14 14 14 14 14 14 14 14 14 11 10 11 10 10 10 10 12 12 12 12 12 11 10 9 10 10 10 10 10 10 9 8 7 8 7 7 7 6 6 6 7
13 13 14 14 14 14 14 14 14 13 14 12 11 11 10 10 10 11 11 11 11 11 11 11 9 9 9 9 9 9 9 9 9 8 7 7 7 6 6 6 6 6 6
13 13 13 14 14 13 13 14 13 14 13 12 11 11 10 10 10 10 9 10 10 9 10 9 9 9 9 9 9 9 9 9 8 8 6 6 6 7 6 6 6 8 8
13 13 13 13 14 13 13 13 12 13 12 11 11 11 10 11 10 9 9 9 9 9 9 9 9 9 9 9 9 9 9 8 8 8 7 7 8 8 8 8 8 8 8
13 12 13 13 13 13 12 12 12 11 12 11 11 12 11 10 10 9 10 10 9 9 9 9 9 9 8 8 8 8 8 7 7 7 8 7 7 8 8 8 8 8 7
12 12 12 12 12 12 13 12 12 11 10 10 9 10 10 10 10 9 10 10 9 9 9 9 8 9 8 8 7 7 7 7 7 6 6 6 8 7 7 7 7 7 7
12 12 12 12 12 12 11 11 11 11 10 9 9 8 8 9 9 9 9 10 10 9 9 9 9 8 8 7 7 7 6 6 6 6 6 6 6 7 7 7 7 7 7
11 11 11 11 11 11 10 10 11 11 11 9 8 6 8 8 8 8 9 9 9 9 9 8 8 8 7 7 7 6 6 6 6 6 6 6 6 6 6 6 6 6 6
10 10 10 11 11 10 10 10 11 10 9 8 7 6 6 7 7 8 9 9 9 9 8 8 8 7 7 7 7 6 5 5 5 5 5 6 6 6 6 6 6 6 5
9 9 10 10 11 10 10 10 9 9 8 8 6 6 6 6 6 7 9 9 9 9 9 8 8 8 7 6 7 7 6 6 5 5 5 5 5 5 5 5 5 5 5
8 9 9 10 10 10 9 9 9 10 9 8 6 7 5 6 6 6 8 8 9 8 9 8 8 8 9 8 7 7 8 8 6 5 5 5 4 4 4 4 4 4 4
8 9 9 9 10 10 9 8 8 8 8 8 7 7 7 7 7 5 7 8 8 8 8 9 8 8 8 8 8 8 8 7 7 7 5 4 4 4 4 3 3 3 3
8 9 8 9 9 10 8 8 8 8 8 8 5 6 6 7 6 5 6 7 8 9 9 8 8 9 8 8 8 8 8 8 7 7 6 5 4 4 3 3 3 3 2
Height
1485 1485 1486 1489 1492 1495 1497 1501 1503 1506 1508 1511 1514 1516 1518 1520 1522 1524 1526 1528 1529 1530 1532 1532 1533 1534 1534 1535 1537 1539 1541 1542 1543 1544 1545 1546 1547 1547 1548 1549 1549 1549 1550
1483 1485 1487 1490 1492 1495 1498 1501 1504 1506 1509 1512 1515 1517 1519 1521 1524 1525 1527 1528 1530 1531 1532 1533 1533 1534 1535 1536 1538 1540 1542 1544 1545 1546 1546 1547 1547 1549 1550 1550 1551 1551 1551
1483 1485 1487 1490 1494 1496 1500 1503 1505 1507 1510 1512 1515 1518 1520 1522 1523 1525 1527 1529 1530 1531 1533 1533 1534 1535 1536 1538 1539 1541 1543 1545 1546 1547 1547 1548 1549 1550 1551 1551 1552 1552 1553
1484 1485 1487 1490 1494 1497 1500 1502 1504 1507 1510 1513 1515 1517 1520 1521 1523 1525 1527 1529 1530 1531 1532 1533 1534 1535 1537 1538 1541 1543 1545 1546 1547 1548 1549 1549 1550 1552 1552 1552 1553 1553 1553
1486 1486 1488 1491 1494 1497 1500 1502 1504 1506 1510 1512 1515 1517 1519 1521 1523 1525 1526 1528 1529 1531 1532 1533 1534 1536 1537 1539 1542 1545 1547 1549 1549 1550 1550 1551 1551 1552 1553 1554 1554 1554 1554
1488 1487 1489 1492 1495 1497 1500 1502 1505 1507 1509 1511 1513 1516 1518 1520 1522 1524 1525 1527 1529 1530 1532 1533 1534 1537 1539 1540 1543 1546 1549 1551 1551 1551 1552 1553 1554 1553 1554 1554 1555 1555 1555
1490 1488 1491 1494 1495 1497 1501 1502 1504 1507 1509 1510 1512 1515 1517 1519 1521 1522 1524 1526 1528 1530 1532 1533 1535 1538 1540 1542 1544 1547 1550 1553 1554 1553 1554 1555 1554 1554 1554 1555 1556 1556 1557
1487 1488 1491 1494 1496 1498 1500 1502 1504 1506 1508 1510 1512 1514 1516 1518 1520 1521 1523 1526 1528 1529 1532 1534 1536 1539 1540 1543 1546 1549 1551 1553 1554 1554 1555 1555 1556 1555 1557 1558 1558 1558 1558
1486 1489 1491 1492 1495 1497 1499 1501 1503 1505 1507 1509 1511 1514 1516 1517 1518 1521 1523 1525 1527 1529 1532 1535 1538 1539 1541 1544 1547 1550 1553 1554 1554 1554 1556 1557 1558 1558 1558 1559 1559 1560 1559
1486 1488 1490 1490 1492 1495 1498 1500 1502 1504 1507 1509 1511 1512 1514 1515 1517 1520 1523 1525 1527 1529 1532 1535 1537 1538 1542 1545 1548 1552 1554 1555 1554 1555 1556 1559 1559 1559 1560 1560 1560 1560 1560
1486 1486 1489 1490 1490 1493 1496 1498 1501 1504 1506 1508 1510 1512 1512 1515 1517 1519 1522 1524 1527 1529 1532 1534 1536 1539 1542 1546 1549 1552 1554 1555 1554 1556 1558 1559 1560 1560 1561 1561 1562 1561 1561
1484 1485 1486 1489 1488 1491 1493 1496 1499 1501 1504 1506 1507 1510 1512 1514 1517 1518 1521 1524 1526 1529 1532 1534 1537 1540 1543 1546 1550 1553 1555 1554 1554 1556 1558 1559 1560 1561 1562 1562 1562 1562 1561
1482 1482 1483 1485 1487 1486 1490 1492 1495 1497 1500 1504 1505 1507 1511 1513 1515 1517 1520 1523 1526 1529 1532 1534 1537 1541 1544 1547 1550 1553 1555 1553 1555 1557 1558 1560 1561 1562 1562 1563 1563 1562 1562
1480 1479 1480 1482 1483 1483 1487 1489 1490 1493 1496 1500 1502 1507 1509 1511 1513 1516 1519 1522 1525 1528 1531 1535 1539 1541 1545 1547 1550 1553 1554 1553 1555 1557 1559 1561 1562 1563 1563 1563 1564 1563 1563
1476 1477 1477 1478 1477 1478 1481 1483 1486 1489 1492 1496 1500 1506 1509 1510 1512 1516 1518 1521 1525 1528 1531 1535 1538 1542 1545 1548 1550 1553 1554 1553 1554 1556 1559 1561 1562 1562 1563 1564 1564 1564 1563
1473 1473 1473 1474 1475 1477 1476 1479 1480 1484 1488 1492 1496 1501 1504 1508 1512 1515 1518 1520 1524 1528 1531 1534 1537 1541 1544 1547 1549 1552 1553 1552 1554 1556 1557 1559 1560 1561 1562 1563 1563 1563 1564
1468 1470 1470 1471 1472 1474 1469 1474 1475 1474 1484 1488 1491 1496 1500 1504 1508 1513 1516 1519 1523 1527 1531 1534 1536 1539 1542 1545 1548 1551 1553 1553 1553 1556 1557 1559 1561 1562 1562 1562 1563 1563 1563
1463 1464 1466 1466 1466 1468 1468 1470 1453 1471 1476 1483 1485 1489 1495 1501 1506 1509 1514 1517 1521 1524 1528 1532 1534 1537 1541 1545 1547 1550 1552 1553 1554 1555 1558 1560 1561 1562 1562 1562 1563 1563 1563
1459 1459 1461 1463 1462 1463 1463 1466 1466 1467 1475 1477 1484 1485 1488 1496 1504 1507 1511 1514 1518 1522 1525 1529 1533 1536 1539 1544 1548 1550 1552 1553 1555 1557 1558 1559 1560 1562 1563 1563 1563 1563 1563
1455 1455 1456 1457 1459 1460 1462 1463 1465 1471 1473 1469 1482 1485 1488 1498 1504 1503 1508 1511 1516 1520 1523 1527 1532 1536 1539 1542 1546 1550 1553 1554 1555 1557 1559 1561 1562 1562 1563 1563 1563 1563 1562
1451 1449 1450 1452 1455 1456 1457 1461 1464 1467 1468 1469 1474 1487 1486 1496 1508 1505 1505 1511 1514 1519 1521 1524 1529 1534 1538 1540 1542 1548 1553 1556 1556 1556 1557 1560 1561 1563 1563 1562 1562 1561 1561
1447 1445 1444 1446 1449 1450 1453 1457 1459 1461 1463 1470 1473 1475 1488 1487 1507 1505 1504 1510 1513 1518 1521 1522 1526 1530 1536 1539 1542 1545 1551 1557 1557 1557 1556 1558 1560 1562 1562 1562 1560 1560 1558
1440 1439 1439 1441 1444 1445 1448 1452 1454 1457 1460 1466 1470 1473 1482 1485 1497 1504 1505 1508 1512 1515 1519 1522 1524 1527 1532 1538 1540 1542 1546 1549 1553 1556 1556 1556 1558 1559 1560 1559 1558 1558 1557
1433 1433 1434 1436 1437 1439 1443 1447 1450 1452 1456 1462 1471 1468 1479 1478 1486 1504 1505 1506 1510 1514 1516 1520 1524 1526 1531 1534 1537 1539 1541 1543 1547 1551 1553 1554 1556 1555 1556 1556 1555 1554 1554
1430 1426 1427 1429 1430 1433 1437 1442 1447 1452 1455 1458 1464 1465 1472 1479 1485 1502 1500 1505 1508 1513 1515 1518 1522 1524 1530 1534 1536 1537 1539 1541 1543 1545 1548 1550 1554 1554 1554 1554 1553 1551 1552
1426 1422 1420 1423 1425 1428 1433 1437 1443 1446 1448 1453 1459 1462 1469 1467 1485 1499 1499 1502 1505 1510 1513 1517 1520 1522 1527 1531 1535 1536 1538 1537 1539 1544 1543 1547 1551 1552 1551 1550 1551 1550 1548
Wind_Speed
10 10 20 21 20 18 18 17 15 14 13 12 12 13 12 12 14 15 16 14 11 8 4 4 4 3 6 10 14 17 18 16 14 12 13 14 14 15 15 11 11 14 13
13 11 21 21 20 18 18 18 17 16 16 14 13 14 13 10 12 13 13 12 10 7 4 5 2 3 8 12 15 16 16 14 13 12 11 13 13 13 12 9 11 13 14
14 12 22 21 20 19 17 19 19 18 17 15 16 15 14 11 10 13 12 11 9 7 6 3 3 6 9 13 15 16 16 16 16 15 12 11 13 12 12 11 11 11 12
13 14 24 23 21 20 19 20 19 19 18 16 16 15 13 12 8 11 11 10 9 8 5 4 6 9 11 13 15 16 18 19 15 13 11 14 17 15 14 13 12 11 8
16 16 23 24 21 22 20 19 17 18 17 15 15 15 16 12 9 11 11 11 9 6 5 7 8 10 12 14 15 17 19 18 14 13 15 16 16 14 10 8 7 6 4
16 15 17 23 21 22 20 17 17 16 15 14 14 13 13 12 11 11 12 9 6 6 7 9 10 12 15 15 18 21 21 17 14 11 10 8 4 5 2 3 4 5 10
14 17 17 21 23 23 20 16 17 16 14 14 13 12 12 12 11 11 9 8 8 8 8 11 12 16 16 18 20 22 19 14 10 6 7 4 1 2 4 6 10 11 12
18 19 18 19 24 24 21 17 16 15 14 13 12 12 12 13 11 9 9 8 8 8 10 14 15 16 15 21 23 24 21 17 12 8 4 8 8 10 14 16 12 12 13
9 15 19 19 25 24 22 18 15 14 14 14 13 15 15 14 11 10 10 9 9 10 14 16 17 15 20 20 21 23 19 13 7 5 14 14 13 16 17 14 12 10 10
14 13 16 23 25 27 24 20 16 17 14 15 16 16 17 12 11 12 11 10 12 12 16 17 17 16 19 18 19 21 19 15 14 14 17 16 18 17 17 15 13 10 9
11 22 19 18 24 29 27 22 19 18 16 17 17 18 16 12 12 12 13 13 14 14 17 16 16 18 17 17 20 23 17 12 11 11 14 14 13 14 12 9 8 12 8
12 14 27 20 26 29 30 26 23 20 19 19 20 19 13 13 13 16 14 14 14 15 17 17 17 16 16 20 24 20 17 12 10 8 13 12 12 10 8 8 13 11 9
15 15 20 25 27 29 30 29 27 24 22 22 21 19 16 13 17 17 16 17 17 17 20 17 18 16 17 24 21 17 15 11 9 9 15 15 16 15 13 14 13 11 11
13 17 13 23 27 33 34 33 31 28 25 24 22 18 21 20 21 20 18 19 18 18 17 21 20 15 15 17 16 20 14 12 9 13 16 15 14 15 14 12 13 11 10
16 16 17 17 24 37 34 36 33 30 26 24 23 22 23 27 23 20 20 18 19 17 19 21 17 20 17 15 17 19 13 9 8 14 17 15 15 13 14 13 11 11 10
17 18 18 20 20 34 37 36 37 32 28 27 26 25 29 27 23 19 19 18 20 17 18 18 20 20 19 19 19 20 16 10 8 10 19 18 14 12 13 11 9 7 7
22 19 17 20 19 25 40 39 41 38 32 34 33 28 30 26 29 26 26 23 21 20 21 20 22 23 21 20 21 22 20 11 9 9 13 10 7 6 7 6 5 5 5
24 20 22 19 22 24 28 30 41 38 35 37 38 33 32 28 29 29 26 25 24 23 22 22 23 24 23 21 21 21 21 17 10 8 11 10 9 7 6 4 3 3 4
17 19 23 22 23 25 23 30 35 31 39 35 33 35 34 30 29 28 27 26 28 28 27 25 24 25 26 23 21 19 18 17 16 12 10 8 9 8 5 3 1 2 4
17 18 20 21 23 26 22 23 33 29 31 30 33 30 28 25 29 29 27 27 26 27 27 25 23 23 25 25 22 19 17 17 14 14 14 12 9 5 4 3 3 4 7
19 18 23 21 24 25 23 25 33 33 31 36 33 29 24 21 23 25 26 24 25 25 25 25 24 24 25 25 27 23 18 13 12 11 9 8 9 7 5 4 5 8 11
19 20 19 23 22 26 23 28 30 33 34 39 39 33 28 24 23 25 24 24 24 25 25 27 27 28 27 26 24 23 13 12 9 8 8 7 8 7 6 7 8 10 12
21 17 20 19 23 28 26 27 29 35 36 35 32 39 40 35 22 21 23 24 25 25 26 27 28 27 29 25 23 11 10 7 17 13 12 10 8 7 8 9 11 12 14
20 18 19 20 27 30 29 29 31 36 40 38 39 38 37 33 28 24 23 24 25 24 23 24 25 23 23 26 26 13 8 10 9 10 15 12 11 8 10 12 13 15 15
20 17 22 21 27 33 30 30 31 36 39 39 38 36 40 33 29 24 21 24 24 23 22 23 23 22 21 22 21 17 12 10 9 7 10 14 14 11 10 12 14 16 17
19 18 15 23 28 34 30 31 32 41 43 38 40 41 41 42 36 27 25 23 23 22 21 21 20 19 18 22 19 19 14 15 14 9 8 8 6 5 8 12 16 16 17
Wind_Direction
201 216 178 169 164 163 158 157 155 152 157 159 161 161 163 157 153 156 154 155 160 170 196 328 351 109 134 138 138 135 131 124 122 108 105 105 105 103 104 93 107 90 88
229 215 184 169 167 163 158 156 159 158 157 155 155 157 154 163 172 178 172 180 185 199 247 300 302 130 136 139 136 134 134 128 115 101 96 100 105 114 115 95 98 91 88
227 217 180 172 166 163 163 167 168 167 162 161 157 156 158 163 172 193 187 194 206 231 272 270 155 138 134 136 137 134 127 118 114 109 104 104 106 111 113 105 94 98 97
219 219 180 174 169 169 175 174 169 173 178 183 191 194 190 201 201 185 193 204 223 250 258 186 153 139 137 137 137 131 125 124 116 120 127 118 107 110 111 107 94 86 95
208 222 187 176 175 181 180 178 179 181 187 197 203 214 216 219 197 196 207 221 235 232 185 159 145 139 136 137 134 130 125 123 111 128 129 126 122 116 115 99 91 95 92
201 219 201 180 183 189 188 186 187 189 200 207 210 211 214 213 198 205 215 220 211 184 163 147 146 135 127 133 132 128 127 129 131 132 151 143 143 114 99 52 57 87 90
192 217 199 189 189 196 193 194 188 198 207 209 211 206 201 200 201 197 205 195 180 169 160 149 141 130 133 133 132 131 127 118 112 124 152 187 142 52 43 80 105 97 85
174 213 211 204 201 200 201 216 191 200 201 203 202 193 180 168 191 196 187 179 174 163 151 135 133 139 142 139 135 131 122 129 137 138 121 108 76 88 106 104 105 94 85
156 210 217 216 212 209 211 220 195 194 191 193 178 169 171 173 188 185 178 172 167 158 141 137 139 145 142 145 145 140 137 132 150 132 104 96 88 93 100 123 116 104 111
192 183 209 210 218 212 211 229 215 186 192 180 177 173 180 192 187 181 176 168 159 160 147 146 145 145 144 144 142 139 124 136 130 129 116 111 103 104 114 114 116 110 107
227 219 219 224 219 214 211 216 230 190 198 177 181 184 197 191 184 173 175 171 166 159 153 147 149 140 143 140 137 134 129 132 161 159 150 131 130 132 136 134 114 91 93
274 243 214 225 215 217 211 212 222 207 189 188 189 196 188 184 174 179 175 176 166 158 151 151 134 140 140 135 132 126 124 157 175 165 151 126 134 150 148 103 96 92 87
292 272 231 227 218 210 215 213 219 219 200 195 197 198 173 184 177 188 185 177 167 163 152 147 140 139 137 135 125 128 143 175 176 144 122 112 113 110 107 104 100 90 82
261 273 266 235 231 225 229 218 220 223 219 203 206 190 166 195 191 194 189 177 168 167 162 148 137 126 142 135 143 146 140 169 183 141 128 127 121 112 109 105 94 87 77
279 267 269 260 233 229 229 210 214 215 217 210 208 189 183 201 201 195 179 175 168 165 161 157 146 161 147 151 151 141 153 177 184 147 138 137 132 124 106 103 96 84 72
272 282 265 270 254 233 230 228 212 220 214 198 210 202 198 205 192 178 172 177 167 176 159 162 164 151 158 160 155 149 151 178 177 167 148 149 154 134 126 119 107 84 60
271 263 260 267 258 237 218 224 207 211 201 195 208 207 204 200 184 181 186 184 176 171 170 169 164 165 166 160 155 158 158 166 195 155 176 172 152 140 139 125 102 80 58
274 262 248 255 262 254 244 233 202 205 201 201 209 206 201 203 191 188 190 185 175 173 171 175 172 169 163 165 161 157 160 161 168 168 161 171 176 161 149 136 113 62 27
288 268 261 242 258 259 254 238 235 210 201 191 192 198 196 199 188 190 189 186 180 179 178 182 178 172 166 164 157 163 164 169 173 169 167 180 182 167 170 168 162 355 349
291 258 265 256 245 255 251 236 232 223 200 187 187 191 183 189 187 188 190 190 189 186 183 183 179 175 170 164 166 160 164 170 173 182 188 195 202 199 199 232 274 316 327
301 288 244 253 234 244 238 228 224 218 210 188 188 183 168 178 189 189 191 190 186 185 180 176 174 173 168 174 170 166 168 180 184 188 193 190 197 205 224 254 296 317 321
295 287 268 240 236 236 234 226 226 215 188 188 188 170 173 173 188 194 192 189 184 184 181 177 180 174 176 180 174 166 150 160 175 184 201 212 220 230 247 273 292 302 313
291 276 269 245 229 231 224 224 216 200 191 193 190 183 185 177 188 205 194 189 186 188 186 183 185 187 180 180 176 162 155 180 183 193 204 221 232 245 266 277 292 307 315
296 294 257 237 228 227 223 218 219 215 197 195 194 191 191 183 177 206 196 190 192 191 190 185 189 191 190 183 178 177 169 174 174 182 209 218 230 229 266 287 297 301 309
312 298 274 236 231 222 216 217 213 208 201 200 201 191 188 181 179 205 196 192 191 189 187 187 185 186 188 197 192 183 170 176 180 175 180 208 230 238 257 278 288 296 304
320 312 268 230 230 220 222 217 215 211 211 206 192 187 183 177 183 193 188 188 189 188 186 185 188 188 188 194 199 206 208 191 188 191 166 158 180 215 241 271 288 296 304